START_TIME,STEP,MOV.,H8,t_acc.,H43,t_acc.,M25,t_acc.,H9,t_acc.
1979-07-05 00:00:30.270 ,0,0,0.,12.0,0.,12.0,0.,12.0,0.,12.0
1979-07-05 00:00:42.270 ,0,0,0.,12.0,0.,12.0,0.,12.0,0.,12.0
1979-07-05 00:00:54.270 ,1,0,0.,12.0,0.,12.0,0.,12.0,0.,12.0
1979-07-05 00:01:06.270 ,1,0,0.,12.0,0.,12.0,0.,12.0,0.,12.0
1979-07-05 00:01:18.270 ,1,0,0.,12.0,0.,12.0,0.,12.0,0.,12.0
1979-07-05 00:01:30.270 ,1,0,0.,12.0,0.,12.0,0.,12.0,0.,12.0
1979-07-05 00:01:42.270 ,2,0,0.,12.0,0.,12.0,0.,12.0,0.,12.0
1979-07-05 00:01:54.270 ,2,0,0.,12.0,0.,12.0,0.,12.0,0.,12.0
1979-07-05 00:02:06.270 ,2,0,0.,12.0,0.,12.0,0.,12.0,0.,12.0
1979-07-05 00:02:18.270 ,2,0,0.,12.0,0.,12.0,0.,12.0,0.,12.0
1979-07-05 00:02:30.270 ,3,0,0.,12.0,0.,12.0,0.,12.0,0.,12.0
1979-07-05 00:02:42.270 ,3,0,0.,12.0,0.,12.0,0.,12.0,0.,12.0
1979-07-05 00:02:54.270 ,3,0,0.,12.0,0.,12.0,0.,12.0,0.,12.0
1979-07-05 00:03:06.270 ,3,0,0.,12.0,0.,12.0,0.,12.0,0.,12.0
1979-07-05 00:03:18.270 ,4,0,0.,12.0,0.,12.0,0.,12.0,0.,12.0
1979-07-05 00:03:30.270 ,4,0,0.,12.0,0.,12.0,0.,12.0,0.,12.0
1979-07-05 00:03:42.270 ,4,0,0.,12.0,0.,12.0,0.,12.0,0.,12.0
1979-07-05 00:03:54.270 ,4,0,0.,12.0,0.,12.0,0.,12.0,0.,12.0
1979-07-05 00:04:06.270 ,5,0,0.,12.0,0.,12.0,0.,12.0,0.,12.0
1979-07-05 00:04:18.270 ,5,0,0.,12.0,0.,12.0,0.,12.0,0.,12.0
1979-07-05 00:04:30.270 ,5,0,0.,12.0,0.,12.0,0.,12.0,0.,12.0
1979-07-05 00:04:42.270 ,5,0,0.,12.0,0.,12.0,0.,12.0,0.,12.0
1979-07-05 00:04:54.270 ,6,0,0.,12.0,0.,12.0,0.,12.0,0.,12.0
1979-07-05 00:05:06.270 ,6,0,0.,12.0,0.,12.0,0.,12.0,0.,12.0
1979-07-05 00:05:18.270 ,6,0,0.,12.0,0.,12.0,0.,12.0,0.,12.0
1979-07-05 00:05:30.270 ,6,0,0.,12.0,0.,12.0,0.,12.0,0.,12.0
1979-07-05 00:05:42.270 ,7,0,0.,12.0,0.,12.0,0.,12.0,0.,12.0
1979-07-05 00:05:54.270 ,7,0,0.,12.0,0.,12.0,0.,12.0,0.,12.0
1979-07-05 00:06:06.270 ,7,0,0.,12.0,0.,12.0,0.,12.0,0.,12.0
1979-07-05 00:06:18.270 ,7,0,0.,12.0,0.,12.0,0.,12.0,0.,12.0
1979-07-05 00:06:30.270 ,7,0,0.,12.0,0.,12.0,0.,12.0,0.,12.0
1979-07-05 00:06:42.270 ,7,0,0.,12.0,0.,12.0,0.,12.0,0.,12.0
1979-07-05 00:06:54.270 ,7,0,0.,12.0,0.,12.0,0.,12.0,0.,12.0
1979-07-05 00:07:06.270 ,7,0,0.,12.0,0.,12.0,0.,12.0,0.,12.0
1979-07-05 00:07:18.270 ,6,0,0.,12.0,0.,12.0,0.,12.0,0.,12.0
1979-07-05 00:07:30.270 ,6,0,0.,12.0,0.,12.0,0.,12.0,0.,12.0
1979-07-05 00:07:42.270 ,6,0,0.,12.0,0.,12.0,0.,12.0,0.,12.0
1979-07-05 00:07:54.270 ,6,0,0.,12.0,0.,12.0,0.,12.0,0.,12.0
1979-07-05 00:08:06.270 ,5,0,0.,12.0,0.,12.0,0.,12.0,0.,12.0
1979-07-05 00:08:18.270 ,5,0,0.,12.0,0.,12.0,0.,12.0,0.,12.0
1979-07-05 00:08:30.270 ,5,0,0.,12.0,0.,12.0,0.,12.0,0.,12.0
1979-07-05 00:08:42.270 ,5,0,1.,12.0,0.,12.0,0.,12.0,0.,12.0
1979-07-05 00:08:54.270 ,4,0,0.,12.0,0.,12.0,0.,12.0,0.,12.0
1979-07-05 00:09:06.270 ,4,0,0.,12.0,0.,12.0,0.,12.0,0.,12.0
1979-07-05 00:09:18.270 ,4,0,0.,12.0,0.,12.0,0.,12.0,0.,12.0
1979-07-05 00:09:30.270 ,4,0,0.,12.0,0.,12.0,0.,12.0,0.,12.0
1979-07-05 00:09:42.270 ,3,0,0.,12.0,0.,12.0,0.,12.0,0.,12.0
1979-07-05 00:09:54.270 ,3,0,0.,12.0,0.,12.0,0.,12.0,0.,12.0
1979-07-05 00:10:06.270 ,3,0,0.,12.0,0.,12.0,0.,12.0,0.,12.0
1979-07-05 00:10:18.270 ,3,0,0.,12.0,0.,12.0,0.,12.0,0.,12.0
1979-07-05 00:10:30.270 ,2,0,0.,12.0,0.,12.0,0.,12.0,0.,12.0
1979-07-05 00:10:42.270 ,2,0,0.,12.0,0.,12.0,0.,12.0,0.,12.0
1979-07-05 00:10:54.270 ,2,0,1.,12.0,0.,12.0,0.,12.0,0.,12.0
1979-07-05 00:11:06.270 ,2,0,0.,12.0,0.,12.0,0.,12.0,0.,12.0
1979-07-05 00:11:18.270 ,1,0,0.,12.0,0.,12.0,0.,12.0,0.,12.0
1979-07-05 00:11:30.270 ,1,0,0.,12.0,0.,12.0,0.,12.0,0.,12.0
1979-07-05 00:11:42.270 ,1,0,0.,12.0,0.,12.0,0.,12.0,0.,12.0
1979-07-05 00:11:54.270 ,1,0,0.,12.0,0.,12.0,0.,12.0,0.,12.0
1979-07-05 00:12:06.270 ,0,0,0.,12.0,0.,12.0,0.,12.0,0.,12.0
1979-07-05 00:12:18.270 ,0,0,0.,12.0,0.,12.0,0.,12.0,0.,12.0
1979-07-05 00:12:30.270 ,0,0,0.,12.0,0.,12.0,0.,12.0,0.,12.0
1979-07-05 00:12:42.270 ,0,0,0.,12.0,0.,12.0,0.,12.0,0.,12.0
1979-07-05 00:12:54.270 ,0,0,0.,12.0,0.,12.0,0.,12.0,0.,12.0
1979-07-05 00:13:06.270 ,0,0,0.,12.0,0.,12.0,0.,12.0,0.,12.0
1979-07-05 00:13:18.270 ,0,0,0.,12.0,0.,12.0,0.,12.0,0.,12.0
1979-07-05 00:13:30.270 ,0,0,0.,12.0,0.,12.0,0.,12.0,0.,12.0
1979-07-05 00:13:42.270 ,1,0,0.,12.0,0.,12.0,0.,12.0,0.,12.0
1979-07-05 00:13:54.270 ,1,0,0.,12.0,0.,12.0,0.,12.0,0.,12.0
1979-07-05 00:14:06.270 ,1,0,0.,12.0,0.,12.0,0.,12.0,0.,12.0
1979-07-05 00:14:18.270 ,1,0,0.,12.0,0.,12.0,0.,12.0,0.,12.0
1979-07-05 00:14:30.270 ,2,0,0.,12.0,0.,12.0,0.,12.0,0.,12.0
1979-07-05 00:14:42.270 ,2,0,0.,12.0,0.,12.0,0.,12.0,0.,12.0
1979-07-05 00:14:54.270 ,2,0,0.,12.0,0.,12.0,0.,12.0,0.,12.0
1979-07-05 00:15:06.270 ,2,0,0.,12.0,0.,12.0,0.,12.0,0.,12.0
1979-07-05 00:15:18.270 ,3,0,0.,12.0,0.,12.0,0.,12.0,0.,12.0
1979-07-05 00:15:30.270 ,3,0,0.,12.0,0.,12.0,0.,12.0,0.,12.0
1979-07-05 00:15:42.270 ,3,0,0.,12.0,0.,12.0,0.,12.0,0.,12.0
1979-07-05 00:15:54.270 ,3,0,0.,12.0,0.,12.0,0.,12.0,0.,12.0
1979-07-05 00:16:06.270 ,4,0,0.,12.0,0.,12.0,0.,12.0,0.,12.0
1979-07-05 00:16:18.270 ,4,0,0.,12.0,0.,12.0,0.,12.0,0.,12.0
1979-07-05 00:16:30.270 ,4,0,0.,12.0,0.,12.0,0.,12.0,0.,12.0
1979-07-05 00:16:42.270 ,4,0,0.,12.0,0.,12.0,0.,12.0,0.,12.0
1979-07-05 00:16:54.270 ,5,0,0.,12.0,0.,12.0,0.,12.0,0.,12.0
1979-07-05 00:17:06.270 ,5,0,0.,12.0,0.,12.0,0.,12.0,0.,12.0
1979-07-05 00:17:18.270 ,5,0,0.,12.0,0.,12.0,0.,12.0,0.,12.0
1979-07-05 00:17:30.270 ,5,0,0.,12.0,0.,12.0,0.,12.0,0.,12.0
1979-07-05 00:17:42.270 ,6,0,0.,12.0,0.,12.0,0.,12.0,0.,12.0
1979-07-05 00:17:54.270 ,6,0,0.,12.0,0.,12.0,0.,12.0,0.,12.0
1979-07-05 00:18:06.270 ,6,0,0.,12.0,0.,12.0,0.,12.0,0.,12.0
1979-07-05 00:18:18.270 ,6,0,0.,12.0,0.,12.0,0.,12.0,0.,12.0
1979-07-05 00:18:30.270 ,7,0,0.,12.0,0.,12.0,0.,12.0,0.,12.0
1979-07-05 00:18:42.270 ,7,0,0.,12.0,0.,12.0,0.,12.0,0.,12.0
1979-07-05 00:18:54.270 ,7,0,0.,12.0,0.,12.0,0.,12.0,0.,12.0
1979-07-05 00:19:06.270 ,7,0,0.,12.0,0.,12.0,0.,12.0,0.,12.0
1979-07-05 00:19:18.270 ,3,1,0.,12.0,0.,12.0,0.,12.0,0.,12.0
1979-07-05 00:19:30.270 ,3,1,0.,12.0,0.,12.0,0.,12.0,0.,12.0
1979-07-05 00:19:42.270 ,0,1,0.,12.0,0.,12.0,0.,12.0,0.,12.0
1979-07-05 00:19:54.270 ,0,1,0.,12.0,0.,12.0,0.,12.0,0.,12.0
1979-07-05 00:20:06.270 ,4,1,0.,12.0,0.,12.0,0.,12.0,0.,12.0
1979-07-05 00:20:18.270 ,4,1,0.,12.0,0.,12.0,0.,12.0,0.,12.0
1979-07-05 00:20:30.270 ,7,1,0.,12.0,0.,12.0,0.,12.0,0.,12.0
1979-07-05 00:20:42.270 ,7,1,0.,12.0,0.,12.0,0.,12.0,0.,12.0
1979-07-05 00:20:54.270 ,3,1,0.,12.0,0.,12.0,0.,12.0,0.,12.0
1979-07-05 00:21:06.270 ,3,1,0.,12.0,0.,12.0,0.,12.0,0.,12.0
1979-07-05 00:21:18.270 ,0,1,0.,12.0,0.,12.0,0.,12.0,0.,12.0
1979-07-05 00:21:30.270 ,0,1,0.,12.0,0.,12.0,0.,12.0,0.,12.0
1979-07-05 00:21:42.270 ,4,1,0.,12.0,0.,12.0,0.,12.0,0.,12.0
1979-07-05 00:21:54.270 ,4,1,0.,12.0,0.,12.0,0.,12.0,0.,12.0
1979-07-05 00:22:06.270 ,7,1,0.,12.0,0.,12.0,0.,12.0,0.,12.0
1979-07-05 00:22:18.270 ,7,1,1.,12.0,0.,12.0,0.,12.0,0.,12.0
1979-07-05 00:22:30.270 ,3,1,0.,12.0,0.,12.0,0.,12.0,0.,12.0
1979-07-05 00:22:42.270 ,3,1,0.,12.0,0.,12.0,0.,12.0,0.,12.0
1979-07-05 00:22:54.270 ,0,1,0.,12.0,0.,12.0,0.,12.0,0.,12.0
1979-07-05 00:23:06.270 ,0,1,0.,12.0,0.,12.0,0.,12.0,0.,12.0
1979-07-05 00:23:18.270 ,4,1,0.,12.0,0.,12.0,0.,12.0,0.,12.0
1979-07-05 00:23:30.270 ,4,1,0.,12.0,0.,12.0,0.,12.0,0.,12.0
1979-07-05 00:23:42.270 ,7,1,0.,12.0,0.,12.0,0.,12.0,0.,12.0
1979-07-05 00:23:54.270 ,7,1,0.,12.0,0.,12.0,0.,12.0,0.,12.0
1979-07-05 00:24:06.270 ,3,1,0.,12.0,0.,12.0,0.,12.0,0.,12.0
1979-07-05 00:24:18.270 ,3,1,0.,12.0,0.,12.0,0.,12.0,0.,12.0
1979-07-05 00:24:30.270 ,0,1,0.,12.0,0.,12.0,0.,12.0,0.,12.0
1979-07-05 00:24:42.270 ,0,1,0.,12.0,0.,12.0,0.,12.0,0.,12.0
1979-07-05 00:24:54.270 ,4,1,0.,12.0,0.,12.0,0.,12.0,0.,12.0
1979-07-05 00:25:06.270 ,4,1,0.,12.0,0.,12.0,0.,12.0,0.,12.0
1979-07-05 00:25:18.270 ,7,1,0.,12.0,0.,12.0,0.,12.0,0.,12.0
1979-07-05 00:25:30.270 ,7,1,0.,12.0,0.,12.0,0.,12.0,0.,12.0
1979-07-05 00:25:42.270 ,3,1,0.,12.0,0.,12.0,0.,12.0,0.,12.0
1979-07-05 00:25:54.270 ,3,1,0.,12.0,0.,12.0,0.,12.0,0.,12.0
1979-07-05 00:26:06.270 ,0,1,0.,12.0,0.,12.0,0.,12.0,0.,12.0
1979-07-05 00:26:18.270 ,0,1,0.,12.0,0.,12.0,0.,12.0,0.,12.0
1979-07-05 00:26:30.270 ,4,1,0.,12.0,0.,12.0,0.,12.0,0.,12.0
1979-07-05 00:26:42.270 ,4,1,0.,12.0,0.,12.0,0.,12.0,0.,12.0
1979-07-05 00:26:54.270 ,7,1,0.,12.0,0.,12.0,0.,12.0,0.,12.0
1979-07-05 00:27:06.270 ,7,1,0.,12.0,0.,12.0,0.,12.0,0.,12.0
1979-07-05 00:27:18.270 ,3,1,0.,12.0,0.,12.0,0.,12.0,0.,12.0
1979-07-05 00:27:30.270 ,3,1,0.,12.0,0.,12.0,0.,12.0,0.,12.0
1979-07-05 00:27:42.270 ,0,1,0.,12.0,0.,12.0,0.,12.0,0.,12.0
1979-07-05 00:27:54.270 ,0,1,0.,12.0,0.,12.0,0.,12.0,0.,12.0
1979-07-05 00:28:06.270 ,4,1,0.,12.0,0.,12.0,0.,12.0,0.,12.0
1979-07-05 00:28:18.270 ,4,1,0.,12.0,0.,12.0,0.,12.0,0.,12.0
1979-07-05 00:28:30.270 ,7,1,0.,12.0,0.,12.0,0.,12.0,0.,12.0
1979-07-05 00:28:42.270 ,7,1,0.,12.0,0.,12.0,0.,12.0,0.,12.0
1979-07-05 00:28:54.270 ,3,1,0.,12.0,0.,12.0,0.,12.0,0.,12.0
1979-07-05 00:29:06.270 ,3,1,0.,12.0,0.,12.0,0.,12.0,0.,12.0
1979-07-05 00:29:18.270 ,0,1,0.,12.0,0.,12.0,0.,12.0,0.,12.0
1979-07-05 00:29:30.270 ,0,1,0.,12.0,0.,12.0,0.,12.0,0.,12.0
1979-07-05 00:29:42.270 ,0,0,0.,12.0,0.,12.0,0.,12.0,0.,12.0
1979-07-05 00:29:54.270 ,0,0,0.,12.0,0.,12.0,0.,12.0,0.,12.0
1979-07-05 00:30:06.270 ,0,0,0.,12.0,0.,12.0,0.,12.0,0.,12.0
1979-07-05 00:30:18.270 ,0,0,0.,12.0,0.,12.0,0.,12.0,0.,12.0
1979-07-05 00:30:30.270 ,5,0,0.,12.0,0.,12.0,0.,12.0,0.,12.0
1979-07-05 00:30:42.270 ,5,0,0.,12.0,0.,12.0,0.,12.0,0.,12.0
1979-07-05 00:30:54.270 ,5,0,0.,12.0,0.,12.0,0.,12.0,0.,12.0
1979-07-05 00:31:06.270 ,5,0,1.,12.0,0.,12.0,0.,12.0,0.,12.0
1979-07-05 00:31:18.270 ,4,0,0.,12.0,0.,12.0,0.,12.0,0.,12.0
1979-07-05 00:31:30.270 ,4,0,0.,12.0,0.,12.0,0.,12.0,0.,12.0
1979-07-05 00:31:42.270 ,4,0,0.,12.0,0.,12.0,0.,12.0,0.,12.0
1979-07-05 00:31:54.270 ,4,0,0.,12.0,0.,12.0,0.,12.0,0.,12.0
1979-07-05 00:32:06.270 ,3,0,0.,12.0,0.,12.0,0.,12.0,0.,12.0
1979-07-05 00:32:18.270 ,3,0,0.,12.0,0.,12.0,0.,12.0,0.,12.0
1979-07-05 00:32:30.270 ,3,0,0.,12.0,0.,12.0,0.,12.0,0.,12.0
1979-07-05 00:32:42.270 ,3,0,0.,12.0,0.,12.0,0.,12.0,0.,12.0
1979-07-05 00:32:54.270 ,2,0,0.,12.0,0.,12.0,0.,12.0,0.,12.0
1979-07-05 00:33:06.270 ,2,0,0.,12.0,0.,12.0,0.,12.0,0.,12.0
1979-07-05 00:33:18.270 ,2,0,0.,12.0,0.,12.0,0.,12.0,0.,12.0
1979-07-05 00:33:30.270 ,2,0,0.,12.0,0.,12.0,0.,12.0,0.,12.0
1979-07-05 00:33:42.270 ,1,0,0.,12.0,0.,12.0,0.,12.0,0.,12.0
1979-07-05 00:33:54.270 ,1,0,0.,12.0,0.,12.0,0.,12.0,0.,12.0
1979-07-05 00:34:06.270 ,1,0,0.,12.0,0.,12.0,0.,12.0,0.,12.0
1979-07-05 00:34:18.270 ,1,0,0.,12.0,0.,12.0,0.,12.0,0.,12.0
1979-07-05 00:34:30.270 ,0,0,0.,12.0,0.,12.0,0.,12.0,0.,12.0
1979-07-05 00:34:42.270 ,0,0,0.,12.0,0.,12.0,0.,12.0,0.,12.0
1979-07-05 00:34:54.270 ,0,0,0.,12.0,0.,12.0,0.,12.0,0.,12.0
1979-07-05 00:35:06.270 ,0,0,0.,12.0,0.,12.0,0.,12.0,0.,12.0
1979-07-05 00:35:18.270 ,0,0,0.,12.0,0.,12.0,0.,12.0,0.,12.0
1979-07-05 00:35:30.270 ,0,0,0.,12.0,0.,12.0,0.,12.0,0.,12.0
1979-07-05 00:35:42.270 ,0,0,0.,12.0,0.,12.0,0.,12.0,0.,12.0
1979-07-05 00:35:54.270 ,0,0,0.,12.0,0.,12.0,0.,12.0,0.,12.0
1979-07-05 00:36:06.270 ,1,0,0.,12.0,0.,12.0,0.,12.0,0.,12.0
1979-07-05 00:36:18.270 ,1,0,0.,12.0,0.,12.0,0.,12.0,0.,12.0
1979-07-05 00:36:30.270 ,1,0,0.,12.0,0.,12.0,0.,12.0,0.,12.0
1979-07-05 00:36:42.270 ,1,0,0.,12.0,0.,12.0,0.,12.0,0.,12.0
1979-07-05 00:36:54.270 ,2,0,0.,12.0,0.,12.0,0.,12.0,0.,12.0
1979-07-05 00:37:06.270 ,2,0,0.,12.0,0.,12.0,0.,12.0,0.,12.0
1979-07-05 00:37:18.270 ,2,0,0.,12.0,0.,12.0,0.,12.0,0.,12.0
1979-07-05 00:37:30.270 ,2,0,0.,12.0,0.,12.0,0.,12.0,0.,12.0
1979-07-05 00:37:42.270 ,3,0,0.,12.0,0.,12.0,0.,12.0,0.,12.0
1979-07-05 00:37:54.270 ,3,0,0.,12.0,0.,12.0,0.,12.0,0.,12.0
1979-07-05 00:38:06.270 ,3,0,0.,12.0,0.,12.0,0.,12.0,0.,12.0
1979-07-05 00:38:18.270 ,3,0,0.,12.0,0.,12.0,0.,12.0,0.,12.0
1979-07-05 00:38:30.270 ,4,0,0.,12.0,0.,12.0,0.,12.0,0.,12.0
1979-07-05 00:38:42.270 ,4,0,0.,12.0,0.,12.0,0.,12.0,0.,12.0
1979-07-05 00:38:54.270 ,4,0,1.,12.0,0.,12.0,0.,12.0,0.,12.0
1979-07-05 00:39:06.270 ,4,0,0.,12.0,0.,12.0,0.,12.0,0.,12.0
1979-07-05 00:39:18.270 ,5,0,0.,12.0,0.,12.0,0.,12.0,0.,12.0
1979-07-05 00:39:30.270 ,5,0,0.,12.0,0.,12.0,0.,12.0,0.,12.0
1979-07-05 00:39:42.270 ,5,0,0.,12.0,0.,12.0,0.,12.0,0.,12.0
1979-07-05 00:39:54.270 ,5,0,0.,12.0,0.,12.0,0.,12.0,0.,12.0
1979-07-05 00:40:06.270 ,6,0,0.,12.0,0.,12.0,0.,12.0,0.,12.0
1979-07-05 00:40:18.270 ,6,0,0.,12.0,0.,12.0,0.,12.0,0.,12.0
1979-07-05 00:40:30.270 ,6,0,0.,12.0,0.,12.0,0.,12.0,0.,12.0
1979-07-05 00:40:42.270 ,6,0,0.,12.0,0.,12.0,0.,12.0,0.,12.0
1979-07-05 00:40:54.270 ,7,0,0.,12.0,0.,12.0,0.,12.0,0.,12.0
1979-07-05 00:41:06.270 ,7,0,0.,12.0,0.,12.0,0.,12.0,0.,12.0
1979-07-05 00:41:18.270 ,7,0,0.,12.0,0.,12.0,0.,12.0,0.,12.0
1979-07-05 00:41:30.270 ,7,0,0.,12.0,0.,12.0,0.,12.0,0.,12.0
1979-07-05 00:41:42.270 ,7,0,0.,12.0,0.,12.0,0.,12.0,0.,12.0
1979-07-05 00:41:54.270 ,7,0,0.,12.0,0.,12.0,0.,12.0,0.,12.0
1979-07-05 00:42:06.270 ,7,0,0.,12.0,0.,12.0,0.,12.0,0.,12.0
1979-07-05 00:42:18.270 ,7,0,0.,12.0,0.,12.0,0.,12.0,0.,12.0
1979-07-05 00:42:30.270 ,6,0,0.,12.0,0.,12.0,0.,12.0,0.,12.0
1979-07-05 00:42:42.270 ,6,0,0.,12.0,0.,12.0,0.,12.0,0.,12.0
1979-07-05 00:42:54.270 ,6,0,0.,12.0,0.,12.0,0.,12.0,0.,12.0
1979-07-05 00:43:06.270 ,6,0,0.,12.0,0.,12.0,0.,12.0,0.,12.0
1979-07-05 00:43:18.270 ,5,0,0.,12.0,0.,12.0,0.,12.0,0.,12.0
1979-07-05 00:43:30.270 ,5,0,0.,12.0,0.,12.0,0.,12.0,0.,12.0
1979-07-05 00:43:42.270 ,5,0,0.,12.0,0.,12.0,0.,12.0,0.,12.0
1979-07-05 00:43:54.270 ,5,0,0.,12.0,0.,12.0,0.,12.0,0.,12.0
1979-07-05 00:44:06.270 ,4,0,0.,12.0,0.,12.0,0.,12.0,0.,12.0
1979-07-05 00:44:18.270 ,4,0,0.,12.0,0.,12.0,0.,12.0,0.,12.0
1979-07-05 00:44:30.270 ,4,0,0.,12.0,0.,12.0,0.,12.0,0.,12.0
1979-07-05 00:44:42.270 ,4,0,0.,12.0,0.,12.0,0.,12.0,0.,12.0
1979-07-05 00:44:54.270 ,3,0,0.,12.0,0.,12.0,0.,12.0,0.,12.0
1979-07-05 00:45:06.270 ,3,0,0.,12.0,0.,12.0,0.,12.0,0.,12.0
1979-07-05 00:45:18.270 ,3,0,0.,12.0,0.,12.0,0.,12.0,0.,12.0
1979-07-05 00:45:30.270 ,3,0,0.,12.0,0.,12.0,0.,12.0,0.,12.0
1979-07-05 00:45:42.270 ,2,0,0.,12.0,0.,12.0,0.,12.0,0.,12.0
1979-07-05 00:45:54.270 ,2,0,0.,12.0,0.,12.0,0.,12.0,0.,12.0
1979-07-05 00:46:06.270 ,2,0,0.,12.0,0.,12.0,0.,12.0,0.,12.0
1979-07-05 00:46:18.270 ,2,0,0.,12.0,0.,12.0,0.,12.0,0.,12.0
1979-07-05 00:46:30.270 ,1,0,0.,12.0,0.,12.0,0.,12.0,0.,12.0
1979-07-05 00:46:42.270 ,1,0,0.,12.0,0.,12.0,0.,12.0,0.,12.0
1979-07-05 00:46:54.270 ,1,0,0.,12.0,0.,12.0,0.,12.0,0.,12.0
1979-07-05 00:47:06.270 ,1,0,0.,12.0,0.,12.0,0.,12.0,0.,12.0
1979-07-05 00:47:18.270 ,0,0,0.,12.0,0.,12.0,0.,12.0,0.,12.0
1979-07-05 00:47:30.270 ,0,0,0.,12.0,0.,12.0,0.,12.0,0.,12.0
1979-07-05 00:47:42.270 ,0,0,0.,12.0,0.,12.0,0.,12.0,0.,12.0
1979-07-05 00:47:54.270 ,0,0,0.,12.0,0.,12.0,0.,12.0,0.,12.0
1979-07-05 00:48:06.270 ,0,0,1.,12.0,0.,12.0,0.,12.0,0.,12.0
1979-07-05 00:48:18.270 ,0,0,1.,12.0,0.,12.0,0.,12.0,0.,12.0
1979-07-05 00:48:30.270 ,0,0,0.,12.0,0.,12.0,0.,12.0,0.,12.0
1979-07-05 00:48:42.270 ,0,0,0.,12.0,0.,12.0,0.,12.0,0.,12.0
1979-07-05 00:48:54.270 ,1,0,0.,12.0,0.,12.0,0.,12.0,0.,12.0
1979-07-05 00:49:06.270 ,1,0,0.,12.0,0.,12.0,0.,12.0,0.,12.0
1979-07-05 00:49:18.270 ,1,0,0.,12.0,0.,12.0,0.,12.0,0.,12.0
1979-07-05 00:49:30.270 ,1,0,0.,12.0,0.,12.0,0.,12.0,0.,12.0
1979-07-05 00:49:42.270 ,2,0,0.,12.0,0.,12.0,0.,12.0,0.,12.0
1979-07-05 00:49:54.270 ,2,0,0.,12.0,0.,12.0,0.,12.0,0.,12.0
1979-07-05 00:50:06.270 ,2,0,0.,12.0,0.,12.0,0.,12.0,0.,12.0
1979-07-05 00:50:18.270 ,2,0,0.,12.0,0.,12.0,0.,12.0,0.,12.0
1979-07-05 00:50:30.270 ,3,0,0.,12.0,0.,12.0,0.,12.0,0.,12.0
1979-07-05 00:50:42.270 ,3,0,1.,12.0,0.,12.0,0.,12.0,0.,12.0
1979-07-05 00:50:54.270 ,3,0,0.,12.0,0.,12.0,0.,12.0,0.,12.0
1979-07-05 00:51:06.270 ,3,0,0.,12.0,0.,12.0,0.,12.0,0.,12.0
1979-07-05 00:51:18.270 ,4,0,0.,12.0,0.,12.0,0.,12.0,0.,12.0
1979-07-05 00:51:30.270 ,4,0,0.,12.0,0.,12.0,0.,12.0,0.,12.0
1979-07-05 00:51:42.270 ,4,0,0.,12.0,0.,12.0,0.,12.0,0.,12.0
1979-07-05 00:51:54.270 ,4,0,0.,12.0,0.,12.0,0.,12.0,0.,12.0
1979-07-05 00:52:06.270 ,5,0,0.,12.0,0.,12.0,0.,12.0,0.,12.0
1979-07-05 00:52:18.270 ,5,0,0.,12.0,0.,12.0,0.,12.0,0.,12.0
1979-07-05 00:52:30.270 ,5,0,0.,12.0,0.,12.0,0.,12.0,0.,12.0
1979-07-05 00:52:42.270 ,5,0,0.,12.0,0.,12.0,0.,12.0,0.,12.0
1979-07-05 00:52:54.270 ,6,0,0.,12.0,0.,12.0,0.,12.0,0.,12.0
1979-07-05 00:53:06.270 ,6,0,0.,12.0,0.,12.0,0.,12.0,0.,12.0
1979-07-05 00:53:18.270 ,6,0,0.,12.0,0.,12.0,0.,12.0,0.,12.0
1979-07-05 00:53:30.270 ,6,0,0.,12.0,0.,12.0,0.,12.0,0.,12.0
1979-07-05 00:53:42.270 ,7,0,0.,12.0,0.,12.0,0.,12.0,0.,12.0
1979-07-05 00:53:54.270 ,7,0,0.,12.0,0.,12.0,0.,12.0,0.,12.0
1979-07-05 00:54:06.270 ,7,0,0.,12.0,0.,12.0,0.,12.0,0.,12.0
1979-07-05 00:54:18.270 ,7,0,0.,12.0,0.,12.0,0.,12.0,0.,12.0
1979-07-05 00:54:30.270 ,7,0,0.,12.0,0.,12.0,0.,12.0,0.,12.0
1979-07-05 00:54:42.270 ,7,0,0.,12.0,0.,12.0,0.,12.0,0.,12.0
1979-07-05 00:54:54.270 ,7,0,0.,12.0,0.,12.0,0.,12.0,0.,12.0
1979-07-05 00:55:06.270 ,7,0,0.,12.0,0.,12.0,0.,12.0,0.,12.0
1979-07-05 00:55:18.270 ,6,0,0.,12.0,0.,12.0,0.,12.0,0.,12.0
1979-07-05 00:55:30.270 ,6,0,0.,12.0,0.,12.0,0.,12.0,0.,12.0
1979-07-05 00:55:42.270 ,6,0,0.,12.0,0.,12.0,0.,12.0,0.,12.0
1979-07-05 00:55:54.270 ,6,0,0.,12.0,0.,12.0,0.,12.0,0.,12.0
1979-07-05 00:56:06.270 ,5,0,0.,12.0,0.,12.0,0.,12.0,0.,12.0
1979-07-05 00:56:18.270 ,5,0,0.,12.0,0.,12.0,0.,12.0,0.,12.0
1979-07-05 00:56:30.270 ,5,0,0.,12.0,0.,12.0,0.,12.0,0.,12.0
1979-07-05 00:56:42.270 ,5,0,0.,12.0,0.,12.0,0.,12.0,0.,12.0
1979-07-05 00:56:54.270 ,4,0,0.,12.0,0.,12.0,0.,12.0,0.,12.0
1979-07-05 00:57:06.270 ,4,0,0.,12.0,0.,12.0,0.,12.0,0.,12.0
1979-07-05 00:57:18.270 ,4,0,0.,12.0,0.,12.0,0.,12.0,0.,12.0
1979-07-05 00:57:30.270 ,4,0,0.,12.0,0.,12.0,0.,12.0,0.,12.0
1979-07-05 00:57:42.270 ,3,0,0.,12.0,0.,12.0,0.,12.0,0.,12.0
1979-07-05 00:57:54.270 ,3,0,0.,12.0,0.,12.0,0.,12.0,0.,12.0
1979-07-05 00:58:06.270 ,3,0,0.,12.0,0.,12.0,0.,12.0,0.,12.0
1979-07-05 00:58:18.270 ,3,0,0.,12.0,0.,12.0,0.,12.0,0.,12.0
1979-07-05 00:58:30.270 ,2,0,0.,12.0,0.,12.0,0.,12.0,0.,12.0
1979-07-05 00:58:42.270 ,2,0,0.,12.0,0.,12.0,0.,12.0,0.,12.0
1979-07-05 00:58:54.270 ,2,0,0.,12.0,0.,12.0,0.,12.0,0.,12.0
1979-07-05 00:59:06.270 ,2,0,0.,12.0,0.,12.0,0.,12.0,0.,12.0
1979-07-05 00:59:18.270 ,1,0,0.,12.0,0.,12.0,0.,12.0,0.,12.0
1979-07-05 00:59:30.270 ,1,0,0.,12.0,0.,12.0,0.,12.0,0.,12.0
1979-07-05 00:59:42.270 ,1,0,0.,12.0,0.,12.0,0.,12.0,0.,12.0
1979-07-05 00:59:54.270 ,1,0,0.,12.0,0.,12.0,0.,12.0,0.,12.0
1979-07-05 01:00:06.270 ,0,0,0.,12.0,0.,12.0,0.,12.0,0.,12.0
1979-07-05 01:00:18.270 ,0,0,0.,12.0,0.,12.0,0.,12.0,0.,12.0
1979-07-05 01:00:30.270 ,0,0,0.,12.0,0.,12.0,0.,12.0,0.,12.0
1979-07-05 01:00:42.270 ,0,0,0.,12.0,0.,12.0,0.,12.0,0.,12.0
1979-07-05 01:00:54.270 ,0,0,0.,12.0,0.,12.0,0.,12.0,0.,12.0
1979-07-05 01:01:06.270 ,0,0,0.,12.0,0.,12.0,0.,12.0,0.,12.0
1979-07-05 01:01:18.270 ,0,0,0.,12.0,0.,12.0,0.,12.0,0.,12.0
1979-07-05 01:01:30.270 ,0,0,0.,12.0,0.,12.0,0.,12.0,0.,12.0
1979-07-05 01:01:42.270 ,1,0,0.,12.0,0.,12.0,0.,12.0,0.,12.0
1979-07-05 01:01:54.270 ,1,0,0.,12.0,0.,12.0,0.,12.0,0.,12.0
1979-07-05 01:02:06.270 ,1,0,0.,12.0,0.,12.0,0.,12.0,0.,12.0
1979-07-05 01:02:18.270 ,1,0,0.,12.0,0.,12.0,0.,12.0,0.,12.0
1979-07-05 01:02:30.270 ,2,0,0.,12.0,0.,12.0,0.,12.0,0.,12.0
1979-07-05 01:02:42.270 ,2,0,0.,12.0,0.,12.0,0.,12.0,0.,12.0
1979-07-05 01:02:54.270 ,2,0,0.,12.0,0.,12.0,0.,12.0,0.,12.0
1979-07-05 01:03:06.270 ,2,0,0.,12.0,0.,12.0,0.,12.0,0.,12.0
1979-07-05 01:03:18.270 ,3,0,0.,12.0,0.,12.0,0.,12.0,0.,12.0
1979-07-05 01:03:30.270 ,3,0,0.,12.0,0.,12.0,0.,12.0,0.,12.0
1979-07-05 01:03:42.270 ,3,0,0.,12.0,0.,12.0,0.,12.0,0.,12.0
1979-07-05 01:03:54.270 ,3,0,0.,12.0,0.,12.0,0.,12.0,0.,12.0
1979-07-05 01:04:06.270 ,4,0,0.,12.0,0.,12.0,0.,12.0,0.,12.0
1979-07-05 01:04:18.270 ,4,0,0.,12.0,0.,12.0,0.,12.0,0.,12.0
1979-07-05 01:04:30.270 ,4,0,0.,12.0,0.,12.0,0.,12.0,0.,12.0
1979-07-05 01:04:42.270 ,4,0,1.,12.0,0.,12.0,0.,12.0,0.,12.0
1979-07-05 01:04:54.270 ,5,0,0.,12.0,0.,12.0,0.,12.0,0.,12.0
1979-07-05 01:05:06.270 ,5,0,0.,12.0,0.,12.0,0.,12.0,0.,12.0
1979-07-05 01:05:18.270 ,5,0,0.,12.0,0.,12.0,0.,12.0,0.,12.0
1979-07-05 01:05:30.270 ,5,0,0.,12.0,0.,12.0,0.,12.0,0.,12.0
1979-07-05 01:05:42.270 ,6,0,0.,12.0,0.,12.0,0.,12.0,0.,12.0
1979-07-05 01:05:54.270 ,6,0,0.,12.0,0.,12.0,0.,12.0,0.,12.0
1979-07-05 01:06:06.270 ,6,0,0.,12.0,0.,12.0,0.,12.0,0.,12.0
1979-07-05 01:06:18.270 ,6,0,0.,12.0,0.,12.0,0.,12.0,0.,12.0
1979-07-05 01:06:30.270 ,7,0,0.,12.0,0.,12.0,0.,12.0,0.,12.0
1979-07-05 01:06:42.270 ,7,0,0.,12.0,0.,12.0,0.,12.0,0.,12.0
1979-07-05 01:06:54.270 ,7,0,0.,12.0,0.,12.0,0.,12.0,0.,12.0
1979-07-05 01:07:06.270 ,7,0,0.,12.0,0.,12.0,0.,12.0,0.,12.0
1979-07-05 01:07:18.270 ,3,1,0.,12.0,0.,12.0,0.,12.0,0.,12.0
1979-07-05 01:07:30.270 ,3,1,0.,12.0,0.,12.0,0.,12.0,0.,12.0
1979-07-05 01:07:42.270 ,0,1,0.,12.0,0.,12.0,0.,12.0,0.,12.0
1979-07-05 01:07:54.270 ,0,1,0.,12.0,0.,12.0,0.,12.0,0.,12.0
1979-07-05 01:08:06.270 ,4,1,0.,12.0,0.,12.0,0.,12.0,0.,12.0
1979-07-05 01:08:18.270 ,4,1,0.,12.0,0.,12.0,0.,12.0,0.,12.0
1979-07-05 01:08:30.270 ,7,1,0.,12.0,0.,12.0,0.,12.0,0.,12.0
1979-07-05 01:08:42.270 ,7,1,0.,12.0,0.,12.0,0.,12.0,0.,12.0
1979-07-05 01:08:54.270 ,3,1,0.,12.0,0.,12.0,0.,12.0,0.,12.0
1979-07-05 01:09:06.270 ,3,1,0.,12.0,0.,12.0,0.,12.0,0.,12.0
1979-07-05 01:09:18.270 ,0,1,0.,12.0,0.,12.0,0.,12.0,0.,12.0
1979-07-05 01:09:30.270 ,0,1,0.,12.0,0.,12.0,0.,12.0,0.,12.0
1979-07-05 01:09:42.270 ,4,1,0.,12.0,0.,12.0,0.,12.0,0.,12.0
1979-07-05 01:09:54.270 ,4,1,0.,12.0,0.,12.0,0.,12.0,0.,12.0
1979-07-05 01:10:06.270 ,7,1,0.,12.0,0.,12.0,0.,12.0,0.,12.0
1979-07-05 01:10:18.270 ,7,1,0.,12.0,0.,12.0,0.,12.0,0.,12.0
1979-07-05 01:10:30.270 ,3,1,0.,12.0,0.,12.0,0.,12.0,0.,12.0
1979-07-05 01:10:42.270 ,3,1,0.,12.0,0.,12.0,0.,12.0,0.,12.0
1979-07-05 01:10:54.270 ,0,1,0.,12.0,0.,12.0,0.,12.0,0.,12.0
1979-07-05 01:11:06.270 ,0,1,0.,12.0,0.,12.0,0.,12.0,0.,12.0
1979-07-05 01:11:18.270 ,4,1,0.,12.0,0.,12.0,0.,12.0,0.,12.0
1979-07-05 01:11:30.270 ,4,1,0.,12.0,0.,12.0,0.,12.0,0.,12.0
1979-07-05 01:11:42.270 ,7,1,0.,12.0,0.,12.0,0.,12.0,0.,12.0
1979-07-05 01:11:54.270 ,7,1,0.,12.0,0.,12.0,0.,12.0,0.,12.0
1979-07-05 01:12:06.270 ,3,1,0.,12.0,0.,12.0,0.,12.0,0.,12.0
1979-07-05 01:12:18.270 ,3,1,0.,12.0,0.,12.0,0.,12.0,0.,12.0
1979-07-05 01:12:30.270 ,0,1,0.,12.0,0.,12.0,0.,12.0,0.,12.0
1979-07-05 01:12:42.270 ,0,1,0.,12.0,0.,12.0,0.,12.0,0.,12.0
1979-07-05 01:12:54.270 ,4,1,0.,12.0,0.,12.0,0.,12.0,0.,12.0
1979-07-05 01:13:06.270 ,4,1,0.,12.0,0.,12.0,0.,12.0,0.,12.0
1979-07-05 01:13:18.270 ,7,1,0.,12.0,0.,12.0,0.,12.0,0.,12.0
1979-07-05 01:13:30.270 ,7,1,0.,12.0,0.,12.0,0.,12.0,0.,12.0
1979-07-05 01:13:42.270 ,3,1,0.,12.0,0.,12.0,0.,12.0,0.,12.0
1979-07-05 01:13:54.270 ,3,1,0.,12.0,0.,12.0,0.,12.0,0.,12.0
1979-07-05 01:14:06.270 ,0,1,0.,12.0,0.,12.0,0.,12.0,0.,12.0
1979-07-05 01:14:18.270 ,0,1,0.,12.0,0.,12.0,0.,12.0,0.,12.0
1979-07-05 01:14:30.270 ,4,1,0.,12.0,0.,12.0,0.,12.0,0.,12.0
1979-07-05 01:14:42.270 ,4,1,0.,12.0,0.,12.0,0.,12.0,0.,12.0
1979-07-05 01:14:54.270 ,7,1,0.,12.0,0.,12.0,0.,12.0,0.,12.0
1979-07-05 01:15:06.270 ,7,1,0.,12.0,0.,12.0,0.,12.0,0.,12.0
1979-07-05 01:15:18.270 ,3,1,0.,12.0,0.,12.0,0.,12.0,0.,12.0
1979-07-05 01:15:30.270 ,3,1,0.,12.0,0.,12.0,0.,12.0,0.,12.0
1979-07-05 01:15:42.270 ,0,1,0.,12.0,0.,12.0,0.,12.0,0.,12.0
1979-07-05 01:15:54.270 ,0,1,0.,12.0,0.,12.0,0.,12.0,0.,12.0
1979-07-05 01:16:06.270 ,4,1,0.,12.0,0.,12.0,0.,12.0,0.,12.0
1979-07-05 01:16:18.270 ,4,1,0.,12.0,0.,12.0,0.,12.0,0.,12.0
1979-07-05 01:16:30.270 ,7,1,0.,12.0,0.,12.0,0.,12.0,0.,12.0
1979-07-05 01:16:42.270 ,7,1,0.,12.0,0.,12.0,0.,12.0,0.,12.0
1979-07-05 01:16:54.270 ,3,1,0.,12.0,0.,12.0,0.,12.0,0.,12.0
1979-07-05 01:17:06.270 ,3,1,0.,12.0,0.,12.0,0.,12.0,0.,12.0
1979-07-05 01:17:18.270 ,0,1,0.,12.0,0.,12.0,0.,12.0,0.,12.0
1979-07-05 01:17:30.270 ,0,1,0.,12.0,0.,12.0,0.,12.0,0.,12.0